When you browse on this site, cookies collect data to enhance your experience and personalize the content and advertising you see.
Visit our Privacy Policy to learn more. By continuing to use the site, you agree to this use of cookies and data.
  • In Portugal
  • List of Countries
  • For 7 days
  • Water Temperature
  • Weather Map
  • Weather Widgets
  • user-avatar
    Login

    Hourly Weather Marratxi

    Today, 12 November, Tuesday

    Time Temperature Precipitation Wind Pressure Humidity
    00:00 +11°C° 0 mm 4 mps 746 mmHg 71%
    01:00 +11°C° 0 mm 3 mps 745 mmHg 70%
    02:00 +11°C° 0 mm 3 mps 745 mmHg 69%
    03:00 +11°C° 0 mm 3 mps 745 mmHg 68%
    04:00 +11°C° 0 mm 4 mps 745 mmHg 69%
    05:00 +10°C° 0 mm 5 mps 745 mmHg 70%
    06:00 +10°C° 0 mm 5 mps 745 mmHg 73%
    07:00 +12°C° 0 mm 4 mps 745 mmHg 70%
    08:00 +12°C° 0 mm 3 mps 746 mmHg 67%
    09:00 +14°C° 0 mm 2 mps 746 mmHg 63%
    10:00 +15°C° 0 mm 2 mps 746 mmHg 60%
    11:00 +14°C° 0 mm 3 mps 746 mmHg 57%
    12:00 +16°C° 0 mm 3 mps 746 mmHg 55%
    13:00 +15°C° 0 mm 4 mps 745 mmHg 55%
    14:00 +14°C° 0 mm 5 mps 744 mmHg 56%
    15:00 +14°C° 0 mm 7 mps 744 mmHg 57%
    16:00 +12°C° 0 mm 7 mps 744 mmHg 61%
    17:00 +13°C° 0 mm 6 mps 744 mmHg 65%
    18:00 +11°C° 0 mm 6 mps 744 mmHg 69%
    19:00 +11°C° 0 mm 6 mps 744 mmHg 71%
    20:00 +11°C° 0 mm 6 mps 744 mmHg 72%
    21:00 +11°C° 0 mm 6 mps 744 mmHg 73%
    22:00 +11°C° 0 mm 6 mps 744 mmHg 74%
    23:00 +11°C° 0 mm 6 mps 744 mmHg 74%

    Tomorrow, 13 November, Wednesday

    Time Temperature Precipitation Wind Pressure Humidity
    00:00 +10°C° 0 mm 5 mps 744 mmHg 75%
    01:00 +11°C° 0 mm 6 mps 743 mmHg 73%
    02:00 +11°C° 0 mm 6 mps 743 mmHg 72%
    03:00 +11°C° 0 mm 6 mps 742 mmHg 70%
    04:00 +11°C° 0.2 mm 6 mps 742 mmHg 73%
    05:00 +11°C° 0.2 mm 7 mps 741 mmHg 76%
    06:00 +12°C° 0.2 mm 7 mps 741 mmHg 79%
    07:00 +12°C° 1.5 mm 8 mps 741 mmHg 82%
    08:00 +12°C° 1.5 mm 9 mps 741 mmHg 84%
    09:00 +13°C° 1.5 mm 10 mps 740 mmHg 87%
    10:00 +13°C° 0.9 mm 9 mps 741 mmHg 85%
    11:00 +13°C° 0.9 mm 9 mps 741 mmHg 83%
    12:00 +15°C° 0.9 mm 8 mps 741 mmHg 81%
    13:00 +14°C° 0.3 mm 7 mps 741 mmHg 82%
    14:00 +13°C° 0.3 mm 6 mps 742 mmHg 83%
    15:00 +13°C° 0.3 mm 5 mps 742 mmHg 83%
    16:00 +12°C° 0 mm 4 mps 743 mmHg 83%
    17:00 +11°C° 0 mm 3 mps 744 mmHg 82%
    18:00 +12°C° 0 mm 2 mps 745 mmHg 81%
    19:00 +12°C° 0 mm 2 mps 745 mmHg 81%
    20:00 +11°C° 0 mm 3 mps 746 mmHg 81%
    21:00 +11°C° 0 mm 4 mps 746 mmHg 81%
    22:00 +11°C° 0 mm 4 mps 745 mmHg 81%
    23:00 +10°C° 0 mm 5 mps 745 mmHg 81%

    Day after tomorrow, 14 November, Thursday

    Time Temperature Precipitation Wind Pressure Humidity
    00:00 +12°C° 0 mm 5 mps 745 mmHg 81%
    01:00 +11°C° 0 mm 6 mps 744 mmHg 81%
    02:00 +11°C° 0 mm 6 mps 743 mmHg 82%
    03:00 +11°C° 0 mm 6 mps 743 mmHg 82%
    04:00 +12°C° 0.1 mm 7 mps 742 mmHg 81%
    05:00 +14°C° 0.1 mm 7 mps 742 mmHg 81%
    06:00 +13°C° 0.1 mm 8 mps 741 mmHg 81%
    07:00 +15°C° 0.2 mm 9 mps 741 mmHg 78%
    08:00 +16°C° 0.2 mm 9 mps 741 mmHg 74%
    09:00 +17°C° 0.2 mm 10 mps 740 mmHg 71%
    10:00 +17°C° 0.1 mm 10 mps 740 mmHg 68%
    11:00 +16°C° 0.1 mm 11 mps 740 mmHg 65%
    12:00 +16°C° 0.1 mm 11 mps 739 mmHg 62%
    13:00 +16°C° 0.1 mm 10 mps 739 mmHg 62%
    14:00 +14°C° 0.1 mm 10 mps 739 mmHg 63%
    15:00 +13°C° 0.1 mm 9 mps 738 mmHg 63%
    16:00 +12°C° 0.3 mm 8 mps 739 mmHg 66%
    17:00 +13°C° 0.3 mm 6 mps 739 mmHg 70%
    18:00 +12°C° 0.3 mm 5 mps 739 mmHg 73%
    19:00 +11°C° 0.1 mm 4 mps 739 mmHg 73%
    20:00 +10°C° 0.1 mm 4 mps 739 mmHg 74%
    21:00 +9°C° 0.1 mm 3 mps 740 mmHg 74%
    22:00 +10°C° 0 mm 4 mps 739 mmHg 71%
    23:00 +10°C° 0 mm 4 mps 739 mmHg 68%

    15 November, Friday

    Time Temperature Precipitation Wind Pressure Humidity
    00:00 +9°C° 0 mm 5 mps 739 mmHg 65%
    01:00 +9°C° 0.3 mm 6 mps 739 mmHg 67%
    02:00 +9°C° 0.3 mm 7 mps 739 mmHg 70%
    03:00 +9°C° 0.3 mm 8 mps 739 mmHg 73%
    04:00 +9°C° 0.3 mm 8 mps 739 mmHg 74%
    05:00 +7°C° 0.3 mm 8 mps 740 mmHg 76%
    06:00 +7°C° 0.3 mm 9 mps 740 mmHg 78%
    07:00 +9°C° 0.2 mm 8 mps 740 mmHg 75%
    08:00 +9°C° 0.2 mm 7 mps 741 mmHg 73%
    09:00 +10°C° 0.2 mm 6 mps 742 mmHg 70%
    10:00 +10°C° 0 mm 6 mps 742 mmHg 67%
    11:00 +11°C° 0 mm 6 mps 742 mmHg 64%
    12:00 +11°C° 0 mm 6 mps 742 mmHg 61%
    13:00 +11°C° 0 mm 6 mps 743 mmHg 60%
    14:00 +12°C° 0 mm 5 mps 743 mmHg 59%
    15:00 +11°C° 0 mm 4 mps 743 mmHg 57%
    16:00 +11°C° 0 mm 4 mps 743 mmHg 60%
    17:00 +10°C° 0 mm 3 mps 743 mmHg 63%
    18:00 +9°C° 0 mm 3 mps 743 mmHg 65%
    19:00 +9°C° 0 mm 2 mps 744 mmHg 65%
    20:00 +9°C° 0 mm 2 mps 744 mmHg 64%
    21:00 +9°C° 0 mm 2 mps 744 mmHg 64%
    22:00 +9°C° 0 mm 2 mps 744 mmHg 64%
    23:00 +9°C° 0 mm 1 mps 745 mmHg 65%

    16 November, Saturday

    Time Temperature Precipitation Wind Pressure Humidity
    00:00 +9°C° 0 mm 1 mps 745 mmHg 66%
    01:00 +8°C° 0.1 mm 2 mps 744 mmHg 67%
    02:00 +8°C° 0.1 mm 2 mps 744 mmHg 68%
    03:00 +8°C° 0.1 mm 2 mps 744 mmHg 70%
    04:00 +8°C° 0.3 mm 2 mps 744 mmHg 71%
    05:00 +8°C° 0.3 mm 3 mps 745 mmHg 72%
    06:00 +8°C° 0.3 mm 3 mps 745 mmHg 72%
    07:00 +8°C° 0.1 mm 4 mps 745 mmHg 69%
    08:00 +10°C° 0.1 mm 4 mps 746 mmHg 67%
    09:00 +12°C° 0.1 mm 5 mps 746 mmHg 64%
    10:00 +12°C° 0 mm 5 mps 746 mmHg 60%
    11:00 +13°C° 0 mm 5 mps 746 mmHg 56%
    12:00 +13°C° 0 mm 6 mps 746 mmHg 52%
    13:00 +13°C° 0.1 mm 6 mps 746 mmHg 58%
    14:00 +11°C° 0.1 mm 7 mps 746 mmHg 65%
    15:00 +10°C° 0.1 mm 8 mps 746 mmHg 71%
    16:00 +10°C° 0 mm 7 mps 746 mmHg 72%
    17:00 +9°C° 0 mm 7 mps 747 mmHg 73%
    18:00 +8°C° 0 mm 6 mps 747 mmHg 74%
    19:00 +8°C° 0 mm 6 mps 747 mmHg 74%
    20:00 +8°C° 0 mm 5 mps 747 mmHg 74%
    21:00 +8°C° 0 mm 5 mps 747 mmHg 73%
    22:00 +7°C° 0 mm 5 mps 747 mmHg 73%
    23:00 +7°C° 0 mm 5 mps 747 mmHg 73%

    17 November, Sunday

    Time Temperature Precipitation Wind Pressure Humidity
    00:00 +7°C° 0 mm 5 mps 747 mmHg 73%
    01:00 +7°C° 0 mm 6 mps 746 mmHg 70%
    02:00 +8°C° 0 mm 6 mps 746 mmHg 67%
    03:00 +8°C° 0 mm 7 mps 746 mmHg 63%
    04:00 +8°C° 0 mm 7 mps 745 mmHg 63%
    05:00 +8°C° 0 mm 6 mps 745 mmHg 62%
    06:00 +8°C° 0 mm 6 mps 745 mmHg 62%
    07:00 +9°C° 0 mm 6 mps 745 mmHg 59%
    08:00 +10°C° 0 mm 7 mps 745 mmHg 57%
    09:00 +12°C° 0 mm 7 mps 745 mmHg 54%
    10:00 +12°C° 0 mm 7 mps 745 mmHg 55%
    11:00 +13°C° 0 mm 8 mps 745 mmHg 56%
    12:00 +13°C° 0 mm 8 mps 745 mmHg 57%
    13:00 +13°C° 0 mm 8 mps 744 mmHg 60%
    14:00 +13°C° 0 mm 8 mps 744 mmHg 62%
    15:00 +13°C° 0 mm 8 mps 744 mmHg 64%
    16:00 +13°C° 0.1 mm 8 mps 744 mmHg 68%
    17:00 +13°C° 0.1 mm 9 mps 744 mmHg 72%
    18:00 +12°C° 0.1 mm 9 mps 744 mmHg 76%
    19:00 +12°C° 0.5 mm 9 mps 744 mmHg 78%
    20:00 +12°C° 0.5 mm 10 mps 743 mmHg 80%
    21:00 +12°C° 0.5 mm 10 mps 743 mmHg 82%
    22:00 +12°C° 0.5 mm 8 mps 743 mmHg 81%
    23:00 +12°C° 0.5 mm 7 mps 743 mmHg 81%
    Show more